Cook, MN

3:53 PM CDT on May 24, 2017 (GMT -0500)
Cook Municipal

Weather History for KCQM - December, 2011

Change the Weather History Date:

Saturday, December 3, 2011

  Actual Average Record
Temperature  
Mean Temperature 28 °F -  
Max Temperature 33 °F 27 °F 48 °F (1998)
Min Temperature 24 °F 12 °F -23 °F (2002)
Degree Days  
Heating Degree Days 36    
Moisture  
Dew Point 21 °F    
Average Humidity 75    
Maximum Humidity 93    
Minimum Humidity 64    
Precipitation  
Precipitation 0.00 in - - ()
Sea Level Pressure  
Sea Level Pressure 29.92 in    
Wind  
Wind Speed 8 mph (SW)    
Max Wind Speed 10 mph    
Max Gust Speed 18 mph    
Visibility 10 miles    
Events      
Averages and records for this station are not official NWS values.
T = Trace of Precipitation, MM = Missing Value Source: NWS Daily Summary

Daily Weather History Graph

Daily Weather History Graph

Search for Another Location

Airport or City:

Trip Planner

Search our weather history database for the weather conditions in past years. The results will help you decide how hot, cold, wet, or windy it might be!

Date:

Astronomy

Dec. 03, 2011 Rise Set
Actual Time 7:40 AM CST 4:19 PM CST
Civil Twilight 7:05 AM CST 4:55 PM CST
Nautical Twilight 6:26 AM CST 5:34 PM CST
Astronomical Twilight 5:49 AM CST 6:11 PM CST
Moon 12:46 PM CST (12/3) 12:45 AM CST (12/3)
Length of Visible Light 9h 49m
Length of Day
8h 38m
Waxing Gibbous, 63% of the Moon is Illuminated
Dec 3
Waxing Gibbous
Dec 10
Full
Dec 17
Last Quarter
Dec 24
New
Jan 1
First Quarter

Hourly Weather History & Observations

Time (CST) Temp. Windchill Dew Point Humidity Pressure Visibility Wind Dir Wind Speed Gust Speed Precip Events Conditions
12:16 AM 26.6 °F 16.8 °F 15.8 °F 64% 29.87 in 10.0 mi South 10.4 mph 17.3 mph N/A   Clear
12:36 AM 26.6 °F 17.5 °F 15.8 °F 64% 29.86 in 10.0 mi South 9.2 mph - N/A   Clear
12:57 AM 26.6 °F 17.5 °F 15.8 °F 64% 29.86 in 10.0 mi South 9.2 mph - N/A   Clear
1:16 AM 26.6 °F 16.8 °F 15.8 °F 64% 29.86 in 10.0 mi South 10.4 mph - N/A   Clear
1:36 AM 26.6 °F 17.5 °F 15.8 °F 64% 29.86 in 10.0 mi South 9.2 mph - N/A   Clear
1:57 AM 26.6 °F 18.2 °F 17.6 °F 69% 29.85 in 10.0 mi SSW 8.1 mph 18.4 mph N/A   Scattered Clouds
2:16 AM 28.4 °F 19.1 °F 17.6 °F 64% 29.84 in 10.0 mi South 10.4 mph - N/A   Mostly Cloudy
2:36 AM 28.4 °F 19.1 °F 17.6 °F 64% 29.85 in 10.0 mi SSW 10.4 mph 17.3 mph N/A   Overcast
2:57 AM 28.4 °F 22.2 °F 17.6 °F 64% 29.86 in 10.0 mi SSW 5.8 mph - N/A   Overcast
3:16 AM 28.4 °F 21.2 °F 19.4 °F 69% 29.86 in 10.0 mi SSW 6.9 mph 10.4 mph N/A   Overcast
3:36 AM 28.4 °F 20.4 °F 19.4 °F 69% 29.87 in 10.0 mi SW 8.1 mph - N/A   Overcast
3:56 AM 28.4 °F 19.1 °F 19.4 °F 69% 29.87 in 10.0 mi SSW 10.4 mph - N/A   Overcast
4:16 AM 28.4 °F 19.1 °F 19.4 °F 69% 29.87 in 10.0 mi SSW 10.4 mph 17.3 mph N/A   Overcast
4:37 AM 28.4 °F 19.1 °F 19.4 °F 69% 29.87 in 10.0 mi SSW 10.4 mph - N/A   Overcast
4:56 AM 28.4 °F 19.1 °F 19.4 °F 69% 29.88 in 10.0 mi SSW 10.4 mph - N/A   Overcast
5:16 AM 28.4 °F 20.4 °F 19.4 °F 69% 29.89 in 10.0 mi SSW 8.1 mph - N/A   Mostly Cloudy
5:37 AM 28.4 °F 22.2 °F 19.4 °F 69% 29.89 in 10.0 mi SSW 5.8 mph - N/A   Mostly Cloudy
5:57 AM 28.4 °F 22.2 °F 19.4 °F 69% 29.90 in 10.0 mi SSW 5.8 mph - N/A   Overcast
6:16 AM 28.4 °F 22.2 °F 19.4 °F 69% 29.90 in 10.0 mi SSW 5.8 mph - N/A   Mostly Cloudy
6:37 AM 26.6 °F 20.0 °F 19.4 °F 74% 29.90 in 10.0 mi SSW 5.8 mph - N/A   Clear
6:56 AM 26.6 °F 21.2 °F 19.4 °F 74% 29.90 in 10.0 mi SSW 4.6 mph - N/A   Clear
7:16 AM 24.8 °F 17.9 °F 17.6 °F 74% 29.90 in 10.0 mi SSW 5.8 mph - N/A   Clear
7:37 AM 24.8 °F 17.9 °F 17.6 °F 74% 29.91 in 10.0 mi SSW 5.8 mph - N/A   Clear
7:57 AM 24.8 °F 16.9 °F 17.6 °F 74% 29.91 in 10.0 mi SSW 6.9 mph - N/A   Clear
8:16 AM 24.8 °F 17.9 °F 17.6 °F 74% 29.92 in 10.0 mi SW 5.8 mph - N/A   Clear
8:56 AM 24.8 °F 17.9 °F 19.4 °F 80% 29.94 in 10.0 mi SSW 5.8 mph - N/A   Clear
9:16 AM 26.6 °F 19.1 °F 19.4 °F 74% 29.94 in 10.0 mi SW 6.9 mph - N/A   Clear
9:37 AM 26.6 °F 19.1 °F 19.4 °F 74% 29.94 in 10.0 mi SW 6.9 mph - N/A   Clear
9:56 AM 26.6 °F 19.1 °F 19.4 °F 74% 29.95 in 10.0 mi SW 6.9 mph - N/A   Clear
10:16 AM 28.4 °F 21.2 °F 21.2 °F 74% 29.96 in 10.0 mi SSW 6.9 mph - N/A   Clear
10:37 AM 28.4 °F 22.2 °F 21.2 °F 74% 29.95 in 10.0 mi SW 5.8 mph - N/A   Clear
10:56 AM 28.4 °F 19.7 °F 21.2 °F 74% 29.95 in 10.0 mi SW 9.2 mph - N/A   Clear
11:16 AM 30.2 °F 23.4 °F 21.2 °F 69% 29.94 in 10.0 mi WSW 6.9 mph - N/A   Clear
11:37 AM 30.2 °F 22.6 °F 21.2 °F 69% 29.93 in 10.0 mi SW 8.1 mph - N/A   Clear
11:56 AM 30.2 °F 23.4 °F 23.0 °F 75% 29.93 in 10.0 mi WSW 6.9 mph - N/A   Clear
12:16 PM 30.2 °F 24.3 °F 23.0 °F 75% 29.93 in 10.0 mi SW 5.8 mph - N/A   Clear
12:37 PM 30.2 °F 26.7 °F 24.8 °F 80% 29.95 in 10.0 mi SSW 3.5 mph - N/A   Clear
1:16 PM 32.0 °F 24.8 °F 24.8 °F 75% 29.94 in 10.0 mi SW 8.1 mph - N/A   Clear
1:37 PM 32.0 °F 27.5 °F 24.8 °F 75% 29.93 in 10.0 mi WSW 4.6 mph - N/A   Scattered Clouds
1:56 PM 33.8 °F 28.6 °F 24.8 °F 70% 29.93 in 10.0 mi WSW 5.8 mph - N/A   Scattered Clouds
2:17 PM 33.8 °F 28.6 °F 24.8 °F 70% 29.93 in 10.0 mi WSW 5.8 mph - N/A   Mostly Cloudy
2:36 PM 32.0 °F 24.2 °F 24.8 °F 75% 29.93 in 10.0 mi West 9.2 mph - N/A   Overcast
2:56 PM 32.0 °F 25.6 °F 24.8 °F 75% 29.93 in 10.0 mi West 6.9 mph - N/A   Overcast
3:17 PM 32.0 °F 27.5 °F 24.8 °F 75% 29.93 in 10.0 mi WNW 4.6 mph - N/A   Overcast
3:36 PM 30.2 °F 25.4 °F 24.8 °F 80% 29.93 in 10.0 mi WNW 4.6 mph - N/A   Overcast
3:57 PM 30.2 °F - 24.8 °F 80% 29.94 in 10.0 mi Calm Calm - N/A   Overcast
4:17 PM 30.2 °F 26.7 °F 26.6 °F 86% 29.94 in 10.0 mi West 3.5 mph - N/A   Overcast
4:36 PM 30.2 °F 26.7 °F 24.8 °F 80% 29.94 in 10.0 mi West 3.5 mph - N/A   Overcast
4:57 PM 30.2 °F 25.4 °F 26.6 °F 86% 29.94 in 10.0 mi NW 4.6 mph - N/A   Overcast
5:17 PM 30.2 °F 23.4 °F 26.6 °F 86% 29.94 in 10.0 mi WNW 6.9 mph - N/A   Overcast
5:36 PM 30.2 °F 25.4 °F 26.6 °F 86% 29.95 in 7.0 mi WNW 4.6 mph - N/A   Overcast
5:57 PM 28.4 °F 24.6 °F 26.6 °F 93% 29.94 in 10.0 mi West 3.5 mph - N/A   Overcast
6:17 PM 28.4 °F 23.3 °F 26.6 °F 93% 29.94 in 10.0 mi WNW 4.6 mph - N/A   Overcast
6:36 PM 28.4 °F 24.6 °F 26.6 °F 93% 29.95 in 10.0 mi WNW 3.5 mph - N/A   Overcast
6:57 PM 28.4 °F 23.3 °F 26.6 °F 93% 29.95 in 10.0 mi WNW 4.6 mph - N/A   Overcast
7:16 PM 28.4 °F 20.4 °F 24.8 °F 86% 29.95 in 10.0 mi NNW 8.1 mph - N/A   Overcast
7:36 PM 28.4 °F 23.3 °F 23.0 °F 80% 29.95 in 10.0 mi NW 4.6 mph - N/A   Overcast
7:57 PM 26.6 °F 18.2 °F 21.2 °F 80% 29.95 in 10.0 mi NW 8.1 mph - N/A   Overcast
8:16 PM 26.6 °F 19.1 °F 21.2 °F 80% 29.95 in 10.0 mi WNW 6.9 mph - N/A   Overcast
8:36 PM 26.6 °F 21.2 °F 21.2 °F 80% 29.96 in 10.0 mi NW 4.6 mph - N/A   Overcast
8:56 PM 24.8 °F 16.9 °F 19.4 °F 80% 29.96 in 10.0 mi NW 6.9 mph - N/A   Overcast
9:17 PM 24.8 °F 19.1 °F 19.4 °F 80% 29.97 in 10.0 mi NNW 4.6 mph - N/A   Overcast
9:37 PM 24.8 °F 19.1 °F 19.4 °F 80% 29.97 in 10.0 mi NNW 4.6 mph - N/A   Overcast
9:56 PM 23.0 °F 15.8 °F 17.6 °F 80% 29.97 in 10.0 mi NW 5.8 mph - N/A   Overcast
10:17 PM 23.0 °F 13.1 °F 17.6 °F 80% 29.97 in 10.0 mi NW 9.2 mph - N/A   Overcast
10:36 PM 21.2 °F 16.4 °F 17.6 °F 86% 29.97 in 10.0 mi WNW 3.5 mph - N/A   Overcast
10:56 PM 21.2 °F 14.9 °F 17.6 °F 86% 29.97 in 10.0 mi NW 4.6 mph - N/A   Overcast
11:17 PM 21.2 °F 10.1 °F 15.8 °F 80% 29.97 in 10.0 mi NW 10.4 mph - N/A   Overcast
11:36 PM 21.2 °F 14.9 °F 15.8 °F 80% 29.97 in 10.0 mi NW 4.6 mph - N/A   Overcast
11:56 PM 19.4 °F 10.4 °F 15.8 °F 86% 29.97 in 10.0 mi NW 6.9 mph - N/A   Overcast